TimeCDT,TemperatureF,Dew PointF,Humidity,Sea Level PressureIn,VisibilityMPH,Wind Direction,Wind SpeedMPH,Gust SpeedMPH,PrecipitationIn,Events,Conditions,WindDirDegrees,DateUTC
5:05 AM,75.2,73.4,94,29.95,10.0,Calm,Calm,-,N/A,,Partly Cloudy,0,2013-10-01 10:05:00
5:45 AM,75.2,73.4,94,29.96,10.0,NNE,1.2,-,N/A,,Clear,30,2013-10-01 10:45:00
6:17 AM,78.8,75.2,89,29.97,10.0,ENE,5.8,-,N/A,,Clear,70,2013-10-01 11:17:00
6:45 AM,78.8,75.2,89,29.97,10.0,East,4.6,-,N/A,,Clear,90,2013-10-01 11:45:00
7:20 AM,78.8,75.2,89,29.99,10.0,East,4.6,-,N/A,,Mostly Cloudy,90,2013-10-01 12:20:00
7:46 AM,80.6,73.4,79,30.00,10.0,East,6.9,-,N/A,,Mostly Cloudy,90,2013-10-01 12:46:00
8:09 AM,80.6,75.2,84,30.01,10.0,East,8.1,-,N/A,,Mostly Cloudy,100,2013-10-01 13:09:00
8:30 AM,82.4,75.2,79,30.00,10.0,East,8.1,-,N/A,,Overcast,90,2013-10-01 13:30:00
8:47 AM,82.4,73.4,74,30.01,10.0,East,8.1,-,N/A,,Mostly Cloudy,90,2013-10-01 13:47:00
9:29 AM,82.4,73.4,74,30.01,10.0,East,4.6,-,N/A,,Mostly Cloudy,90,2013-10-01 14:29:00
10:00 AM,82.4,73.4,74,30.02,10.0,East,8.1,-,N/A,,Overcast,100,2013-10-01 15:00:00
10:21 AM,84.2,75.2,74,30.02,10.0,East,8.1,-,N/A,,Mostly Cloudy,80,2013-10-01 15:21:00
10:54 AM,84.2,75.2,74,30.02,10.0,East,10.4,-,N/A,,Clear,90,2013-10-01 15:54:00
11:26 AM,84.2,75.2,74,30.02,10.0,ENE,17.3,-,N/A,,Mostly Cloudy,70,2013-10-01 16:26:00
11:51 AM,86.0,75.2,70,30.00,10.0,ENE,17.3,-,N/A,,Clear,70,2013-10-01 16:51:00
12:23 PM,84.2,75.2,74,30.01,10.0,East,11.5,-,N/A,,Clear,90,2013-10-01 17:23:00
12:45 PM,84.2,75.2,74,30.00,10.0,East,12.7,-,N/A,,Partly Cloudy,90,2013-10-01 17:45:00
1:15 PM,84.2,75.2,74,30.00,10.0,ENE,17.3,-,N/A,,Partly Cloudy,70,2013-10-01 18:15:00
1:45 PM,82.4,77.0,84,30.00,10.0,East,16.1,-,N/A,,Mostly Cloudy,80,2013-10-01 18:45:00
2:14 PM,82.4,75.2,79,29.98,10.0,East,16.1,-,N/A,,Scattered Clouds,80,2013-10-01 19:14:00
2:45 PM,82.4,75.2,79,29.97,10.0,East,9.2,-,N/A,,Scattered Clouds,90,2013-10-01 19:45:00
2:59 PM,82.4,75.2,79,29.97,8.0,East,11.5,-,N/A,Thunderstorm,Thunderstorm,100,2013-10-01 19:59:00
3:13 PM,80.6,75.2,84,29.96,7.0,SE,10.4,-,N/A,Rain-Thunderstorm,Light Thunderstorms and Rain,130,2013-10-01 20:13:00
3:20 PM,78.8,73.4,83,29.96,3.0,SSE,11.5,-,N/A,Rain-Thunderstorm,Light Thunderstorms and Rain,150,2013-10-01 20:20:00
3:29 PM,78.8,75.2,89,29.96,9.0,SE,4.6,-,N/A,Rain-Thunderstorm,Light Thunderstorms and Rain,130,2013-10-01 20:29:00
3:45 PM,78.8,75.2,89,29.96,10.0,SE,5.8,-,N/A,Thunderstorm,Thunderstorm,140,2013-10-01 20:45:00
4:01 PM,78.8,75.2,89,29.97,10.0,East,16.1,-,N/A,Thunderstorm,Thunderstorm,90,2013-10-01 21:01:00
4:14 PM,78.8,77.0,94,29.98,10.0,East,19.6,-,N/A,Thunderstorm,Thunderstorm,80,2013-10-01 21:14:00
4:45 PM,77.0,75.2,94,29.97,10.0,East,9.2,-,N/A,,Mostly Cloudy,100,2013-10-01 21:45:00